Вернуться в каталог

SL-14 DEB

АктивенPO
NORAD 45355·DEBRIS·🇷🇺 Russia

Запущен Aug 15, 1991 с Plesetsk Cosmodrome

Loading…

Ближайшие Пролёты (ближайшие 24 часа)

TLE

СвежийSource: Space-Track

Эпоха: Sep 14, 2026, 08:44 UTC

1 45355U 91056CP  26257.36415167  .00002566  00000-0  71388-2 0  9996
2 45355  82.6084 127.8774 0028651 140.4582 219.8635 13.11886051313223

Отслеживайте SL-14 DEB в реальном времени с AllMySat

Download on the App Store